GW3474 Weather Reports


time (UTC)temp
C
wind
direction
speed
KPH
gust
KPH
rain 1hr
cm
rain 24hr
cm
rain mn
cm
humidity
%
barometer
mb
20260504205515 28 0.0 0.0 0.00 0.00 0.00 23 1005.2
20260504204535 28 0.0 0.0 0.00 0.00 0.00 23 1005.4
20260504203516 28 0.0 0.0 0.00 0.00 0.00 23 1005.7
20260504202515 28 0.0 0.0 0.00 0.00 0.00 22 1005.7
20260504201516 28 0.0 0.0 0.00 0.00 0.00 22 1005.7
20260504200516 28 0.0 0.0 0.00 0.00 0.00 21 1005.7
20260504195516 28 0.0 0.0 0.00 0.00 0.00 19 1006.0
20260504194515 29 0.0 0.0 0.00 0.00 0.00 20 1006.2
20260504193515 29 0.0 0.0 0.00 0.00 0.00 19 1006.4
20260504192516 29 0.0 0.0 0.00 0.00 0.00 19 1006.7
20260504191516 29 0.0 0.0 0.00 0.00 0.00 19 1006.8
20260504190535 30 0.0 0.0 0.00 0.00 0.00 18 1006.9
20260504185516 29 0.0 0.0 0.00 0.00 0.00 19 1007.0
20260504184515 29 0.0 0.0 0.00 0.00 0.00 19 1007.2
20260504183516 28 0.0 0.0 0.00 0.00 0.00 20 1007.3
20260504182515 29 0.0 0.0 0.00 0.00 0.00 18 1007.5
20260504181516 29 0.0 0.0 0.00 0.00 0.00 16 1007.6
20260504180516 29 0.0 0.0 0.00 0.00 0.00 19 1007.6
20260504175515 29 0.0 0.0 0.00 0.00 0.00 19 1007.8
20260504174518 29 0.0 0.0 0.00 0.00 0.00 19 1008.0
20260504173516 29 0.0 0.0 0.00 0.00 0.00 19 1008.1
20260504172515 29 0.0 0.0 0.00 0.00 0.00 21 1008.2
20260504171515 28 0.0 0.0 0.00 0.00 0.00 22 1008.2
20260504170516 28 0.0 0.0 0.00 0.00 0.00 22 1008.2
20260504150536 22 0.0 0.0 0.00 0.00 0.00 40 1008.0
20260504140516 18 0.0 0.0 0.00 0.00 0.00 51 1008.5
20260504130518 12 0.0 0.0 0.00 0.00 0.00 67 1007.9
20260504110515 12 0.0 0.0 0.00 0.00 0.00 66 1007.8
20260504100516 13 0.0 0.0 0.00 0.00 0.00 64 1008.5
20260504081516 14 0.0 0.0 0.00 0.00 0.00 57 1009.1
20260504080515 15 0.0 0.0 0.00 0.00 0.00 55 1009.2
20260504050516 17 0.0 0.0 0.00 0.00 0.00 45 1010.4
20260504045557 17 0.0 0.0 0.00 0.00 0.00 44 1010.4
20260504044516 17 0.0 0.0 0.00 0.00 0.00 43 1010.4
20260504043515 17 0.0 0.0 0.00 0.00 0.00 42 1010.4
20260504042515 17 0.0 0.0 0.00 0.00 0.00 41 1010.4
20260504041536 17 0.0 0.0 0.00 0.00 0.00 40 1010.4
20260504040537 18 0.0 0.0 0.00 0.00 0.00 40 1010.4
20260504035515 18 0.0 0.0 0.00 0.00 0.00 38 1010.4
20260504034515 18 0.0 0.0 0.00 0.00 0.00 37 1010.5
20260504033515 19 0.0 0.0 0.00 0.00 0.00 35 1010.5
20260504032515 20 0.0 0.0 0.00 0.00 0.00 33 1010.4
20260504031515 20 0.0 0.0 0.00 0.00 0.00 32 1010.4
20260504030516 20 0.0 0.0 0.00 0.00 0.00 32 1010.1
20260504025515 20 0.0 0.0 0.00 0.00 0.00 31 1010.1
20260504024515 21 0.0 0.0 0.00 0.00 0.00 29 1010.0
20260504023537 21 0.0 0.0 0.00 0.00 0.00 28 1009.6
20260504022516 21 0.0 0.0 0.00 0.00 0.00 27 1009.6
20260504021515 22 0.0 0.0 0.00 0.00 0.00 27 1009.6
20260504020515 22 0.0 0.0 0.00 0.00 0.00 26 1009.3
20260504015538 23 0.0 0.0 0.00 0.00 0.00 24 1009.3
20260504014515 23 0.0 0.0 0.00 0.00 0.00 23 1009.1
20260504013515 23 0.0 0.0 0.00 0.00 0.00 23 1008.8
20260504012515 24 0.0 0.0 0.00 0.00 0.00 21 1008.8
20260504011517 25 0.0 0.0 0.00 0.00 0.00 20 1008.9
20260504010515 26 0.0 0.0 0.00 0.00 0.00 18 1008.8
20260504005516 26 0.0 0.0 0.00 0.00 0.00 18 1009.0
20260504004516 26 0.0 0.0 0.00 0.00 0.00 17 1009.1
20260504003516 26 0.0 0.0 0.00 0.00 0.00 16 1008.9
20260504002515 27 0.0 0.0 0.00 0.00 0.00 16 1009.1
20260504001515 27 0.0 0.0 0.00 0.00 0.00 15 1009.2
20260504000515 27 0.0 0.0 0.00 0.00 0.00 16 1009.4
20260503235515 27 0.0 0.0 0.00 0.00 0.00 16 1009.7
20260503234515 27 0.0 0.0 0.00 0.00 0.00 16 1009.9
20260503233516 27 0.0 0.0 0.00 0.00 0.00 16 1010.0
20260503232515 27 0.0 0.0 0.00 0.00 0.00 17 1010.2
20260503231516 27 0.0 0.0 0.00 0.00 0.00 15 1010.4
20260503230516 27 0.0 0.0 0.00 0.00 0.00 16 1010.5
20260503225515 27 0.0 0.0 0.00 0.00 0.00 16 1010.7
20260503224515 27 0.0 0.0 0.00 0.00 0.00 16 1010.8
20260503223516 27 0.0 0.0 0.00 0.00 0.00 16 1010.9
20260503222516 27 0.0 0.0 0.00 0.00 0.00 17 1011.1
20260503221516 27 0.0 0.0 0.00 0.00 0.00 16 1011.1
20260503220515 27 0.0 0.0 0.00 0.00 0.00 16 1011.3
20260503215516 26 0.0 0.0 0.00 0.00 0.00 17 1011.5
20260503214515 27 0.0 0.0 0.00 0.00 0.00 16 1011.6
20260503213515 27 0.0 0.0 0.00 0.00 0.00 17 1011.8
20260503212516 27 0.0 0.0 0.00 0.00 0.00 16 1012.0
20260503211515 27 0.0 0.0 0.00 0.00 0.00 16 1012.2
20260503210515 27 0.0 0.0 0.00 0.00 0.00 16 1012.5